G7TKI-13 Weather Reports


time (UTC)temp
C
wind
direction
speed
KPH
gust
KPH
rain 1hr
cm
rain 24hr
cm
rain mn
cm
humidity
%
barometer
mb
20260507103433 13 0.0 0.0 0.00 0.00 0.00 67 1020.1
20260507102428 14 113 1.6 1.6 0.00 0.00 0.00 66 1020.4
20260507101440 13 0.0 0.0 0.00 0.00 0.00 68 1020.3
20260507100412 15 333 0.0 1.6 0.00 0.00 0.00 63 1020.2
20260507095405 15 142 0.0 1.6 0.00 0.00 0.00 66 1020.2
20260507094356 14 117 1.6 1.6 0.00 0.00 0.00 66 1020.0
20260507093340 15 0.0 0.0 0.00 0.00 0.00 66 1020.1
20260507092338 14 0.0 0.0 0.00 0.00 0.00 68 1020.2
20260507091336 13 0.0 0.0 0.00 0.00 0.00 70 1020.3
20260507090335 13 0.0 0.0 0.00 0.00 0.00 70 1020.3
20260507085333 13 357 1.6 1.6 0.00 0.00 0.00 71 1020.1
20260507084324 13 182 1.6 1.6 0.00 0.00 0.00 69 1020.1
20260507083336 13 0.0 0.0 0.00 0.00 0.00 71 1019.9
20260507082308 12 152 0.0 1.6 0.00 0.00 0.00 71 1020.0
20260507081300 11 0.0 0.0 0.00 0.00 0.00 77 1020.1
20260507080252 11 146 3.2 4.8 0.00 0.00 0.00 78 1020.0
20260507075241 11 182 3.2 3.2 0.00 0.00 0.00 77 1020.0
20260507074233 11 156 1.6 3.2 0.00 0.00 0.00 79 1020.0
20260507073223 10 350 0.0 1.6 0.00 0.00 0.00 80 1020.0
20260507072221 10 133 1.6 1.6 0.00 0.00 0.00 81 1019.9
20260507071213 10 0.0 0.0 0.00 0.00 0.00 83 1019.9
20260507070205 10 119 0.0 1.6 0.00 0.00 0.00 83 1019.8
20260507065156 9 139 0.0 1.6 0.00 0.00 0.00 84 1019.6
20260507064140 9 0.0 0.0 0.00 0.00 0.00 85 1019.7
20260507063158 8 0.0 0.0 0.00 0.00 0.00 85 1019.6
20260507062136 8 0.0 0.0 0.00 0.00 0.00 87 1019.7
20260507061154 8 0.0 0.0 0.00 0.00 0.00 88 1019.9
20260507060132 8 0.0 0.0 0.00 0.00 0.00 91 1019.6
20260507055121 7 0.0 0.0 0.00 0.00 0.00 92 1019.6
20260507054116 7 8 0.0 1.6 0.00 0.00 0.00 94 1019.5
20260507053108 6 0.0 0.0 0.00 0.00 0.00 94 1019.3
20260507052120 6 0.0 0.0 0.00 0.00 0.00 94 1019.4
20260507051053 6 0.0 0.0 0.00 0.00 0.00 94 1019.3
20260507050045 6 0.0 0.0 0.00 0.00 0.00 94 1019.3
20260507045043 6 0.0 0.0 0.00 0.00 0.00 94 1019.2
20260507044040 6 0.0 0.0 0.00 0.00 0.00 94 1019.3
20260507043038 6 0.0 0.0 0.00 0.00 0.00 93 1019.2
20260507042116 5 0.0 0.0 0.00 0.00 0.00 93 1019.3
20260507041035 5 0.0 0.0 0.00 0.00 0.00 93 1019.2
20260507040033 6 0.0 0.0 0.00 0.00 0.00 93 1018.9
20260507035040 6 0.0 0.0 0.00 0.00 0.00 92 1018.9
20260507034013 6 0.0 0.0 0.00 0.00 0.00 92 1018.9
20260507032501 6 0.0 0.0 0.00 0.00 0.00 92 1019.1
20260507031532 6 0.0 0.0 0.00 0.00 0.00 92 1019.1
20260507030444 6 0.0 0.0 0.00 0.00 0.00 92 1019.1
20260507025437 6 0.0 0.0 0.00 0.00 0.00 92 1019.0
20260507024455 6 0.0 0.0 0.00 0.00 0.00 92 1019.1
20260507023454 6 0.0 0.0 0.00 0.00 0.00 92 1018.9
20260507022428 6 0.0 0.0 0.00 0.00 0.00 92 1019.0
20260507021420 6 0.0 0.0 0.00 0.00 0.00 92 1019.1
20260507020412 7 0.0 0.0 0.00 0.00 0.00 92 1019.0
20260507015405 7 0.0 0.0 0.00 0.00 0.00 92 1018.7
20260507014356 6 0.0 0.0 0.00 0.00 0.00 92 1018.6
20260507013348 6 0.0 0.0 0.00 0.00 0.00 92 1018.8
20260507012338 7 0.0 0.0 0.00 0.00 0.00 91 1018.8
20260507011332 7 0.0 0.0 0.00 0.00 0.00 91 1018.6
20260507010325 7 0.0 0.0 0.00 0.00 0.00 91 1018.9
20260507005317 7 0.0 0.0 0.00 0.00 0.00 91 1018.9
20260507004328 7 0.0 0.0 0.00 0.00 0.00 90 1018.7
20260507003300 7 0.0 0.0 0.00 0.00 0.00 90 1018.7
20260507002332 7 0.0 0.0 0.00 0.00 0.00 89 1018.7
20260507001236 7 0.0 0.0 0.00 0.00 0.00 89 1018.6
20260507000234 7 0.0 0.0 0.00 0.00 0.00 88 1018.9
20260506235228 8 0.0 0.0 0.00 0.00 0.00 87 1018.9
20260506234220 8 0.0 0.0 0.00 0.00 0.00 87 1018.7
20260506233212 8 0.0 0.0 0.00 0.00 0.00 86 1018.7
20260506232224 8 0.0 0.0 0.00 0.00 0.00 86 1018.8
20260506231157 8 0.0 0.0 0.00 0.00 0.00 86 1018.6
20260506230142 8 0.0 0.0 0.00 0.00 0.00 87 1018.7
20260506225139 8 0.0 0.0 0.00 0.00 0.00 87 1018.5
20260506224139 8 0.0 0.0 0.00 0.00 0.00 87 1018.6
20260506223135 8 130 0.0 1.6 0.00 0.00 0.00 87 1018.5
20260506222132 8 0.0 0.0 0.00 0.00 0.00 86 1018.7
20260506221121 9 0.0 0.0 0.00 0.00 0.00 86 1018.4
20260506220116 9 0.0 0.0 0.00 0.00 0.00 86 1018.5
20260506215108 9 323 1.6 1.6 0.00 0.00 0.00 86 1018.5
20260506214100 9 0.0 0.0 0.00 0.00 0.00 86 1018.5
20260506213041 9 0.0 0.0 0.00 0.00 0.00 86 1018.4
20260506212039 9 0.0 0.0 0.00 0.00 0.00 86 1018.5
20260506211037 9 348 1.6 1.6 0.00 0.00 0.00 86 1018.5
20260506210035 9 16 0.0 1.6 0.00 0.00 0.00 86 1018.3
20260506205030 9 0.0 0.0 0.00 0.00 0.00 86 1018.2
20260506204028 9 4 0.0 1.6 0.00 0.00 0.00 85 1018.3
20260506203020 10 0.0 0.0 0.00 0.00 0.00 84 1018.1
20260506202152 10 324 1.6 3.2 0.00 0.00 0.00 83 1018.0
20260506200501 10 17 3.2 4.8 0.00 0.00 0.00 81 1017.8
20260506195453 10 0.0 0.0 0.00 0.00 0.00 80 1017.9
20260506194459 10 3 0.0 1.6 0.00 0.00 0.00 79 1017.7
20260506193437 10 346 3.2 3.2 0.00 0.00 0.00 77 1017.5
20260506192434 10 358 3.2 4.8 0.00 0.00 0.00 75 1017.3
20260506191429 11 332 0.0 1.6 0.00 0.00 0.00 73 1017.5
20260506190428 11 8 0.0 1.6 0.00 0.00 0.00 73 1017.5
20260506185457 11 42 0.0 1.6 0.00 0.00 0.00 73 1017.1
20260506184413 11 337 1.6 3.2 0.00 0.00 0.00 70 1017.2
20260506183425 11 0.0 0.0 0.00 0.00 0.00 68 1016.8
20260506182357 11 359 3.2 4.8 0.00 0.00 0.00 68 1016.8
20260506181341 12 18 0.0 1.6 0.00 0.00 0.00 68 1016.9
20260506180339 12 23 3.2 4.8 0.00 0.00 0.00 66 1016.6
20260506175337 12 70 0.0 1.6 0.00 0.00 0.00 67 1016.5
20260506174335 12 48 1.6 3.2 0.00 0.00 0.00 67 1016.5
20260506173332 12 9 1.6 1.6 0.00 0.00 0.00 67 1016.5
20260506172322 12 34 3.2 3.2 0.00 0.00 0.00 66 1016.6
20260506171317 12 0.0 0.0 0.00 0.00 0.00 66 1016.4
20260506170329 12 339 3.2 3.2 0.00 0.00 0.00 65 1016.4
20260506165300 12 339 1.6 1.6 0.00 0.00 0.00 66 1016.4
20260506164312 12 2 4.8 4.8 0.00 0.00 0.00 66 1016.5
20260506163244 12 2 6.4 6.4 0.00 0.00 0.00 65 1016.6
20260506162234 12 41 3.2 4.8 0.00 0.00 0.00 66 1016.4
20260506161221 12 84 3.2 4.8 0.00 0.00 0.00 66 1016.5
20260506160220 12 321 1.6 1.6 0.00 0.00 0.00 66 1016.5
20260506155212 12 335 3.2 6.4 0.00 0.00 0.00 64 1016.4
20260506154205 12 0.0 0.0 0.00 0.00 0.00 65 1016.6
20260506153157 12 43 1.6 3.2 0.00 0.00 0.00 65 1016.5
20260506152140 12 330 3.2 4.8 0.00 0.00 0.00 67 1016.5
20260506151139 12 104 3.2 3.2 0.00 0.00 0.00 68 1016.6
20260506150137 12 341 3.2 4.8 0.00 0.00 0.00 70 1016.5
20260506145137 11 0.0 0.0 0.00 0.00 0.00 69 1016.6
20260506144133 12 332 3.2 3.2 0.00 0.00 0.00 69 1016.4
20260506143122 11 357 0.0 1.6 0.00 0.00 0.00 69 1016.5
20260506142117 11 20 1.6 4.8 0.00 0.00 0.00 69 1016.6
20260506141105 12 2 6.4 6.4 0.00 0.00 0.00 68 1016.6
20260506140100 12 335 6.4 6.4 0.00 0.00 0.00 66 1016.5
20260506135052 13 337 1.6 6.4 0.00 0.00 0.00 64 1016.4
20260506134041 12 22 4.8 6.4 0.00 0.00 0.00 67 1016.5
20260506133039 12 351 1.6 1.6 0.00 0.00 0.00 68 1016.7
20260506132037 12 21 6.4 6.4 0.00 0.00 0.00 68 1016.5
20260506131035 12 38 3.2 4.8 0.00 0.00 0.00 67 1016.5
20260506130049 12 31 0.0 1.6 0.00 0.00 0.00 68 1016.3
20260506125021 12 33 1.6 3.2 0.00 0.00 0.00 66 1016.6
20260506124009 12 24 4.8 6.4 0.00 0.00 0.00 67 1016.4
20260506122520 12 322 3.2 4.8 0.00 0.00 0.00 67 1016.4
20260506121446 12 4 9.7 12.9 0.00 0.00 0.00 67 1016.4
20260506120444 12 316 1.6 4.8 0.00 0.00 0.00 67 1016.4
20260506115455 12 36 1.6 3.2 0.00 0.00 0.00 70 1016.6
20260506114422 11 24 4.8 4.8 0.00 0.00 0.00 73 1016.4
20260506113420 12 344 4.8 4.8 0.00 0.00 0.00 73 1016.5
20260506112412 11 14 6.4 11.3 0.00 0.00 0.00 75 1016.4
20260506111404 11 51 1.6 1.6 0.00 0.00 0.00 80 1016.6
20260506110404 10 338 1.6 3.2 0.00 0.00 0.00 84 1016.6
20260506105342 10 43 3.2 3.2 0.00 0.00 0.00 84 1016.5
20260506104339 10 319 8.0 12.9 0.00 0.00 0.00 83 1016.6